Regional Weather Roundup
Issued by NWS

Home | Current Version | Previous Version | Text Only | Print | Product List | Glossary On
Versions: 1 2 3 4 5 6 7 8 9 10 11 12 13 14 15 16 17 18 19 20 21 22 23 24 25 26 27 28 29 30 31 32 33 34 35 36 37 38 39 40 41 42 43 44 45 46 47 48 49 50
000
ASUS43 KIND 031559
RWRIN

WEATHER ROUNDUP FOR INDIANA
NATIONAL WEATHER SERVICE INDIANAPOLIS IN
1200 PM EDT MON AUG 03 2015

NOTE: "FAIR" INDICATES FEW OR NO CLOUDS BELOW 12,000 FEET WITH NO
SIGNIFICANT WEATHER AND/OR OBSTRUCTIONS TO VISIBILITY.

* - STATION DOES NOT REPORT WEATHER SUCH AS PRECIPITATION OR FOG.

+ - STATION NOT QUALITY CONTROLLED BY THE NATIONAL WEATHER SERVICE.
    USE DATA WITH CAUTION...ESPECIALLY DEWPOINT AND RELATIVE
    HUMIDITY OBSERVATIONS.

INZ001>003-010>013-019-020-031700-
NORTHWEST INDIANA

CITY           SKY/WX    TMP DP  RH WIND       PRES   REMARKS
GARY /AIRPORT/ MOSUNNY   77  61  57 N7        29.87R

$$

LMZ046-743>745-031700-
SOUTHERN LAKE MICHIGAN

STATION/POSITION TIME  TEMP    WIND        PRES    WAVE
                       AIR SEA DIR/SP/G            HT
                 (UTC) (F)     (DEG/KT/KT) (MB)    (FT)
BURNS HARBOR     1500   71     330/  9/ 11 1011.2R
MICHIGAN CITY    1500   72     290/ 11/ 13   N/A
5NW MICH CITY    1500   71 74  330/ 10/ 12   N/A     2

$$

INZ004-005-014>016-021>024-031700-
NORTH CENTRAL INDIANA

CITY           SKY/WX    TMP DP  RH WIND       PRES   REMARKS
ELKHART        MOSUNNY   77  63  61 W9        29.84R
GOSHEN         SUNNY     75  66  73 W8        29.84R
SOUTH BEND     MOSUNNY   79  65  62 NW10      29.85R

$$

INZ006>009-017-018-025>027-031700-
NORTHEAST INDIANA

CITY           SKY/WX    TMP DP  RH WIND       PRES   REMARKS
ANGOLA *+      MOSUNNY   75  64  69 VRB5      29.84R
FORT WAYNE     PTSUNNY   75  67  76 W8        29.85S

$$

INZ028-029-035-036-043>045-051>053-031700-
WEST CENTRAL INDIANA

CITY           SKY/WX    TMP DP  RH WIND       PRES   REMARKS
GREENCASTLE +  SUNNY     81  68  65 CALM      29.86S
LAFAYETTE      SUNNY     81  65  58 NW10      29.83S
TERRE HAUTE    SUNNY     85  69  58 W10       29.85R

$$

INZ030>032-037>040-046>048-054>057-064-065-031700-
CENTRAL INDIANA

CITY           SKY/WX    TMP DP  RH WIND       PRES   REMARKS
GREENWOOD *+   CLOUDY    79  66  65 S8        29.87S
INDIANAPOLIS   PTSUNNY   83  71  67 S7        29.84S
-EAGLE CREEK   MOSUNNY   83  72  69 SW8       29.84S
KOKOMO *+      PTSUNNY   79  70  73 NW12      29.84S
MT COMFORT *+  PTSUNNY   77  70  78 S10       29.86F
SHELBYVILLE    CLOUDY    79  65  62 S14G21    29.87R

$$

INZ033-034-041-042-049-050-058-059-031700-
EAST CENTRAL INDIANA

CITY           SKY/WX    TMP DP  RH WIND       PRES   REMARKS
MUNCIE         CLOUDY    73  67  81 SW12G21   29.85S

$$

INZ060-061-067>069-081>083-085>088-031700-
SOUTHWEST INDIANA

CITY           SKY/WX    TMP DP  RH WIND       PRES   REMARKS
EVANSVILLE     SUNNY     88  69  53 W8        29.88F
HUNTINGBURG *+ SUNNY     84  72  65 S8        29.89R

$$

INZ062-063-066-070>080-084-089>092-031700-
SOUTH CENTRAL AND SOUTHEAST INDIANA

CITY           SKY/WX    TMP DP  RH WIND       PRES   REMARKS
BLOOMINGTON    MOSUNNY   84  71  65 W5        29.87S
MADISON *+     SUNNY     79  61  53 S13       29.92S
SEYMOUR +      SUNNY     81  64  57 S9G16     29.88F

$$



USA.gov is the U.S. government's official web portal to all federal, state and local government web resources and services.